EN

Hourly Weather Pakszynek

Today, 20 April, Tuesday

Time Temperature Precipitation Wind Pressure Humidity
00:00 +11°C° 0.1 mm 1 mps 752 mmHg 79%
01:00 +10°C° 0.1 mm 1 mps 752 mmHg 80%
02:00 +10°C° 0 mm 1 mps 752 mmHg 80%
03:00 +10°C° 0 mm 1 mps 752 mmHg 81%
04:00 +9°C° 0 mm 1 mps 752 mmHg 81%
05:00 +10°C° 0 mm 1 mps 752 mmHg 79%
06:00 +11°C° 0 mm 1 mps 752 mmHg 77%
07:00 +12°C° 0 mm 2 mps 752 mmHg 75%
08:00 +12°C° 0.2 mm 1 mps 752 mmHg 69%
09:00 +13°C° 0.2 mm 1 mps 752 mmHg 64%
10:00 +14°C° 0.2 mm 1 mps 752 mmHg 58%
11:00 +15°C° 0.2 mm 1 mps 752 mmHg 56%
12:00 +15°C° 0.2 mm 1 mps 751 mmHg 55%
13:00 +15°C° 0.2 mm 1 mps 751 mmHg 53%
14:00 +15°C° 0.3 mm 1 mps 751 mmHg 53%
15:00 +15°C° 0.3 mm 1 mps 750 mmHg 54%
16:00 +15°C° 0.3 mm 1 mps 750 mmHg 54%
17:00 +14°C° 0.2 mm 1 mps 750 mmHg 60%
18:00 +13°C° 0.2 mm 1 mps 750 mmHg 65%
19:00 +12°C° 0.2 mm 1 mps 750 mmHg 71%
20:00 +11°C° 0.1 mm 1 mps 750 mmHg 74%
21:00 +11°C° 0.1 mm 1 mps 750 mmHg 77%
22:00 +10°C° 0.1 mm 1 mps 749 mmHg 80%
23:00 +10°C° 0.2 mm 1 mps 749 mmHg 82%

Tomorrow, 21 April, Wednesday

Time Temperature Precipitation Wind Pressure Humidity
00:00 +9°C° 0.2 mm 1 mps 749 mmHg 84%
01:00 +8°C° 0.2 mm 2 mps 749 mmHg 86%
02:00 +7°C° 0.1 mm 2 mps 749 mmHg 88%
03:00 +7°C° 0.1 mm 2 mps 749 mmHg 90%
04:00 +6°C° 0.1 mm 2 mps 748 mmHg 91%
05:00 +7°C° 0 mm 3 mps 748 mmHg 88%
06:00 +8°C° 0 mm 3 mps 749 mmHg 86%
07:00 +8°C° 0 mm 3 mps 749 mmHg 83%
08:00 +10°C° 0 mm 4 mps 748 mmHg 78%
09:00 +11°C° 0 mm 4 mps 748 mmHg 73%
10:00 +13°C° 0 mm 5 mps 748 mmHg 67%
11:00 +13°C° 0.2 mm 5 mps 748 mmHg 61%
12:00 +14°C° 0.2 mm 5 mps 748 mmHg 55%
13:00 +15°C° 0.2 mm 5 mps 748 mmHg 49%
14:00 +14°C° 0 mm 5 mps 748 mmHg 52%
15:00 +13°C° 0 mm 5 mps 748 mmHg 56%
16:00 +13°C° 0 mm 5 mps 747 mmHg 59%
17:00 +12°C° 0 mm 4 mps 747 mmHg 61%
18:00 +11°C° 0 mm 4 mps 747 mmHg 63%
19:00 +11°C° 0 mm 3 mps 747 mmHg 66%
20:00 +8°C° 0 mm 4 mps 748 mmHg 72%
21:00 +7°C° 0 mm 4 mps 748 mmHg 79%
22:00 +6°C° 0 mm 5 mps 748 mmHg 86%
23:00 +5°C° 0.1 mm 4 mps 748 mmHg 85%

Day after tomorrow, 22 April, Thursday

Time Temperature Precipitation Wind Pressure Humidity
00:00 +5°C° 0.1 mm 4 mps 748 mmHg 85%
01:00 +5°C° 0.1 mm 3 mps 748 mmHg 84%
02:00 +4°C° 0 mm 4 mps 748 mmHg 83%
03:00 +2°C° 0 mm 5 mps 749 mmHg 83%
04:00 +1°C° 0 mm 5 mps 749 mmHg 82%
05:00 +1°C° 0 mm 6 mps 749 mmHg 78%
06:00 0°C° 0 mm 7 mps 749 mmHg 75%
07:00 0°C° 0 mm 7 mps 749 mmHg 71%
08:00 +2°C° 0 mm 7 mps 749 mmHg 68%
09:00 +2°C° 0 mm 7 mps 749 mmHg 65%
10:00 +3°C° 0 mm 7 mps 749 mmHg 62%
11:00 +2°C° 0 mm 8 mps 749 mmHg 59%
12:00 +4°C° 0 mm 8 mps 749 mmHg 57%
13:00 +5°C° 0 mm 8 mps 749 mmHg 54%
14:00 +5°C° 0.1 mm 8 mps 749 mmHg 56%
15:00 +6°C° 0.1 mm 8 mps 749 mmHg 58%
16:00 +6°C° 0.1 mm 8 mps 749 mmHg 61%
17:00 +4°C° 0.4 mm 7 mps 749 mmHg 70%
18:00 +3°C° 0.4 mm 7 mps 749 mmHg 79%
19:00 +2°C° 0.4 mm 6 mps 750 mmHg 88%
20:00 +2°C° 0.1 mm 6 mps 750 mmHg 89%
21:00 +1°C° 0.1 mm 6 mps 750 mmHg 90%
22:00 +1°C° 0.1 mm 6 mps 750 mmHg 91%
23:00 +1°C° 0.1 mm 6 mps 750 mmHg 90%

23 April, Friday

Time Temperature Precipitation Wind Pressure Humidity
00:00 +1°C° 0.1 mm 6 mps 750 mmHg 89%
01:00 +1°C° 0.1 mm 6 mps 751 mmHg 89%
02:00 +1°C° 0 mm 6 mps 751 mmHg 89%
03:00 +1°C° 0 mm 6 mps 751 mmHg 89%
04:00 +1°C° 0 mm 6 mps 751 mmHg 89%
05:00 +1°C° 0 mm 6 mps 752 mmHg 88%
06:00 +1°C° 0 mm 6 mps 752 mmHg 87%
07:00 +1°C° 0 mm 6 mps 753 mmHg 86%
08:00 +2°C° 0 mm 6 mps 753 mmHg 84%
09:00 +2°C° 0 mm 6 mps 754 mmHg 83%
10:00 +3°C° 0 mm 6 mps 754 mmHg 81%
11:00 +4°C° 0.2 mm 6 mps 754 mmHg 75%
12:00 +5°C° 0.2 mm 6 mps 755 mmHg 68%
13:00 +7°C° 0.2 mm 6 mps 755 mmHg 62%
14:00 +7°C° 0.1 mm 6 mps 755 mmHg 57%
15:00 +8°C° 0.1 mm 6 mps 755 mmHg 51%
16:00 +9°C° 0.1 mm 6 mps 755 mmHg 45%
17:00 +7°C° 0 mm 6 mps 756 mmHg 47%
18:00 +5°C° 0 mm 5 mps 756 mmHg 49%
19:00 +3°C° 0 mm 4 mps 757 mmHg 50%
20:00 +2°C° 0 mm 3 mps 757 mmHg 52%
21:00 +2°C° 0 mm 3 mps 757 mmHg 54%
22:00 +2°C° 0 mm 2 mps 757 mmHg 56%
23:00 +2°C° 0 mm 2 mps 757 mmHg 56%

24 April, Saturday

Time Temperature Precipitation Wind Pressure Humidity
00:00 +1°C° 0 mm 3 mps 756 mmHg 57%
01:00 +1°C° 0 mm 3 mps 756 mmHg 57%
02:00 0°C° 0 mm 4 mps 755 mmHg 58%
03:00 +1°C° 0 mm 5 mps 755 mmHg 58%
04:00 +1°C° 0 mm 6 mps 754 mmHg 58%
05:00 +1°C° 0 mm 6 mps 754 mmHg 65%
06:00 +2°C° 0 mm 7 mps 754 mmHg 72%
07:00 +3°C° 0 mm 7 mps 754 mmHg 79%
08:00 +3°C° 0 mm 7 mps 754 mmHg 79%
09:00 +3°C° 0 mm 7 mps 754 mmHg 78%
10:00 +3°C° 0 mm 7 mps 754 mmHg 78%
11:00 +4°C° 0 mm 7 mps 754 mmHg 77%
12:00 +4°C° 0 mm 7 mps 754 mmHg 76%
13:00 +4°C° 0 mm 7 mps 754 mmHg 74%
14:00 +5°C° 0.2 mm 7 mps 754 mmHg 73%
15:00 +5°C° 0.2 mm 7 mps 754 mmHg 71%
16:00 +7°C° 0.2 mm 6 mps 754 mmHg 70%
17:00 +6°C° 0.2 mm 5 mps 755 mmHg 71%
18:00 +4°C° 0.2 mm 4 mps 755 mmHg 72%
19:00 +3°C° 0.2 mm 3 mps 756 mmHg 73%
20:00 +2°C° 0 mm 3 mps 756 mmHg 73%
21:00 +1°C° 0 mm 3 mps 757 mmHg 73%
22:00 0°C° 0 mm 3 mps 757 mmHg 73%
23:00 -1°C° 0 mm 3 mps 757 mmHg 74%

25 April, Sunday

Time Temperature Precipitation Wind Pressure Humidity
00:00 -1°C° 0 mm 3 mps 757 mmHg 75%
01:00 -1°C° 0 mm 3 mps 758 mmHg 76%
02:00 -1°C° 0 mm 3 mps 758 mmHg 80%
03:00 -2°C° 0 mm 3 mps 758 mmHg 83%
04:00 -2°C° 0 mm 3 mps 758 mmHg 86%
05:00 0°C° 0 mm 3 mps 758 mmHg 81%
06:00 0°C° 0 mm 4 mps 758 mmHg 76%
07:00 +3°C° 0 mm 4 mps 759 mmHg 70%
08:00 +4°C° 0 mm 4 mps 759 mmHg 61%
09:00 +6°C° 0 mm 4 mps 759 mmHg 51%
10:00 +7°C° 0 mm 4 mps 759 mmHg 42%
11:00 +8°C° 0 mm 5 mps 759 mmHg 41%
12:00 +8°C° 0 mm 5 mps 759 mmHg 40%
13:00 +9°C° 0 mm 5 mps 759 mmHg 39%
14:00 +9°C° 0 mm 6 mps 759 mmHg 40%
15:00 +8°C° 0 mm 6 mps 759 mmHg 41%
16:00 +8°C° 0 mm 7 mps 759 mmHg 42%
17:00 +5°C° 0 mm 6 mps 759 mmHg 47%
18:00 +5°C° 0 mm 4 mps 759 mmHg 52%
19:00 +3°C° 0 mm 3 mps 759 mmHg 57%
20:00 +3°C° 0 mm 2 mps 759 mmHg 60%
21:00 +3°C° 0 mm 2 mps 759 mmHg 62%
22:00 +3°C° 0 mm 1 mps 759 mmHg 64%
23:00 +2°C° 0 mm 2 mps 758 mmHg 65%
Show more

We Need Your Consent

Meteoprog and our Service Providers may store and access personal data such as cookies, device identifiers or other similar technologies on your device and process such data to personalise content and ads, as well as provide social media features and to analyse the traffic.

  • Store and/or access information on your device

    Cookies, device identifiers or other information can be stored or accessed on your device for the purposes indicated above.

  • Personalised ads and content, ad and content measurement, audience insights, and products development

    Ads and content can be personalised based on a profile. More data can be added to better personalise ads and content. Ad and content performance can be measured. Insights about the audience who saw the ads and content can be derived. Such data can be used to develop or improve user’s experience, systems and software.

By clicking ‘I Agree’ you will allow the use of indicated cookies, device identifiers, web beacons or other similar technologies. Your settings can be changed in the browser on your device.

For certain purposes, legitimate interests may be relied on, rather than consent. You can read more about this in our Privacy and Cookie Policy.